Weather History for Logan, UT

Change the Weather History Date:

Sunday, February 16, 2014

  Actual Average Record
Temperature  
Mean Temperature 37 °F -  
Max Temperature 46 °F 37 °F 55 °F (1958)
Min Temperature 28 °F 17 °F -9 °F (2002)
Degree Days  
Heating Degree Days 28    
Moisture  
Dew Point 27 °F    
Average Humidity 69    
Maximum Humidity 92    
Minimum Humidity 51    
Precipitation  
Precipitation 0.01 in - - ()
Sea Level Pressure  
Sea Level Pressure 29.98 in    
Wind  
Wind Speed 7 mph (NW)    
Max Wind Speed 22 mph    
Max Gust Speed 39 mph    
Visibility 10 miles    
Events Rain , Snow    
Averages and records for this station are not official NWS values.
T = Trace of Precipitation, MM = Missing Value Source: NWS Daily Summary

Daily Weather History Graph

Daily Weather History Graph

Search for Another Location

Airport:

Trip Planner

Search our weather history database for the weather conditions in past years. The results will help you decide how hot, cold, wet, or windy it might be!

Date:

Astronomy

Feb. 16, 2014 Rise Set
Actual Time 7:21 AM MST 6:02 PM MST
Civil Twilight 6:53 AM MST 6:30 PM MST
Nautical Twilight 6:20 AM MST 7:03 PM MST
Astronomical Twilight 5:48 AM MST 7:35 PM MST
Moon 8:04 PM MST (2/16) 7:51 AM MST (2/16)
Length of Visible Light 11h 37m
Length of Day
10h 40m
Full, 97% of the Moon is Illuminated
Feb 16
Full
Feb 22
Last Quarter
Mar 1
New
Mar 8
First Quarter
Mar 16
Full

Hourly Weather History & Observations

Time (MST) Temp. Windchill Dew Point Humidity Pressure Visibility Wind Dir Wind Speed Gust Speed Precip Events Conditions
12:51 AM 39.0 °F - 32.0 °F 76% 29.84 in 10.0 mi Calm Calm - N/A   Partly Cloudy
1:51 AM 34.0 °F 28.8 °F 32.0 °F 92% 29.85 in 10.0 mi North 5.8 mph - N/A   Scattered Clouds
2:51 AM 35.1 °F 31.0 °F 32.0 °F 89% 29.83 in 10.0 mi WNW 4.6 mph - N/A   Mostly Cloudy
3:51 AM 39.0 °F 34.0 °F 32.0 °F 76% 29.81 in 10.0 mi ESE 6.9 mph - N/A   Overcast
4:51 AM 36.0 °F - 32.0 °F 86% 29.78 in 10.0 mi North - - N/A   Overcast
5:51 AM 37.0 °F 33.3 °F 32.0 °F 82% 29.79 in 10.0 mi ESE 4.6 mph - N/A   Overcast
6:51 AM 37.0 °F 32.4 °F 30.9 °F 79% 29.76 in 10.0 mi West 5.8 mph - N/A   Mostly Cloudy
7:51 AM 35.1 °F 28.6 °F 30.9 °F 85% 29.78 in 10.0 mi East 8.1 mph - N/A   Mostly Cloudy
8:51 AM 42.1 °F 34.5 °F 30.9 °F 65% 29.78 in 10.0 mi North 15.0 mph - 0.00 in   Mostly Cloudy
9:51 AM 44.1 °F 39.0 °F 30.9 °F 60% 29.81 in 9.0 mi WNW 9.2 mph - 0.00 in Rain Light Rain
10:51 AM 46.9 °F - 32.0 °F 56% 29.79 in 10.0 mi WSW 15.0 mph 19.6 mph 0.00 in   Overcast
11:30 AM 39.9 °F 30.0 °F 30.9 °F 70% 29.87 in 10.0 mi NW 21.9 mph 39.1 mph 0.01 in Rain Light Rain
11:51 AM 37.9 °F 27.6 °F 28.9 °F 70% 29.93 in 10.0 mi NW 20.7 mph - 0.01 in   Overcast
12:51 PM 34.0 °F 23.0 °F 30.0 °F 85% 29.99 in 4.0 mi North 18.4 mph 31.1 mph 0.00 in Snow Light Snow
1:05 PM 35.1 °F 25.5 °F 30.9 °F 85% 29.98 in 10.0 mi NNE 15.0 mph - 0.00 in   Overcast
1:51 PM 39.0 °F 30.6 °F 27.0 °F 62% 30.01 in 10.0 mi North 15.0 mph - 0.00 in   Overcast
2:51 PM 39.0 °F 32.8 °F 23.0 °F 53% 30.04 in 10.0 mi West 9.2 mph - N/A   Overcast
3:51 PM 41.0 °F 34.7 °F 24.1 °F 51% 30.07 in 10.0 mi WNW 10.4 mph - N/A   Mostly Cloudy
4:51 PM 39.9 °F 32.9 °F 24.1 °F 53% 30.13 in 10.0 mi NW 11.5 mph - N/A   Overcast
5:51 PM 37.0 °F 32.4 °F 21.9 °F 54% 30.18 in 10.0 mi NNW 5.8 mph - N/A   Mostly Cloudy
6:51 PM 36.0 °F - 19.9 °F 52% 30.22 in 10.0 mi Calm Calm - N/A   Clear
7:51 PM 35.1 °F 30.1 °F 21.9 °F 59% 30.27 in 10.0 mi South 5.8 mph - N/A   Overcast
8:51 PM 36.0 °F - 19.9 °F 52% 30.25 in 10.0 mi Calm Calm - N/A   Mostly Cloudy
9:51 PM 32.0 °F 27.5 °F 21.0 °F 64% 30.27 in 10.0 mi Variable 4.6 mph - N/A   Partly Cloudy
10:51 PM 28.9 °F 25.2 °F 19.9 °F 69% 30.27 in 10.0 mi SE 3.5 mph - N/A   Clear
11:51 PM 30.0 °F 23.2 °F 21.0 °F 69% 30.29 in 10.0 mi SSE 6.9 mph - N/A   Clear